| time (UTC) | temp F | wind direction | speed MPH | gust MPH | rain 1hr in | rain 24hr in | rain mn in | humidity % | barometer mb |
| 20260508194556 | 70 | 152 | 1.0 | 7.0 | 0.00 | 0.00 | 0.00 | 34 | 1014.5 |
| 20260508191550 | 69 | 198 | 1.0 | 7.0 | 0.00 | 0.00 | 0.00 | 38 | 1015.1 |
| 20260508190049 | 67 | 142 | 2.0 | 12.0 | 0.00 | 0.00 | 0.00 | 35 | 1015.3 |
| 20260508184649 | 68 | 154 | 6.0 | 9.0 | 0.00 | 0.00 | 0.00 | 37 | 1015.5 |
| 20260508181607 | 68 | 256 | 2.0 | 8.0 | 0.00 | 0.00 | 0.00 | 37 | 1015.7 |
| 20260508180049 | 67 | 163 | 2.0 | 7.0 | 0.00 | 0.00 | 0.00 | 35 | 1015.8 |
| 20260508174549 | 67 | 324 | 5.0 | 12.0 | 0.00 | 0.00 | 0.00 | 35 | 1015.9 |
| 20260508171553 | 66 | 155 | 3.0 | 5.0 | 0.00 | 0.00 | 0.00 | 35 | 1016.3 |
| 20260508170048 | 65 | 157 | 0.0 | 3.0 | 0.00 | 0.00 | 0.00 | 36 | 1016.5 |
| 20260508164548 | 64 | 305 | 0.0 | 4.0 | 0.00 | 0.00 | 0.00 | 39 | 1016.9 |
| 20260508161545 | 66 | 59 | 1.0 | 6.0 | 0.00 | 0.00 | 0.00 | 35 | 1017.2 |
| 20260508160044 | 65 | 138 | 2.0 | 5.0 | 0.00 | 0.00 | 0.00 | 37 | 1017.3 |
| 20260508154544 | 64 | 51 | 1.0 | 6.0 | 0.00 | 0.00 | 0.00 | 36 | 1017.6 |
| 20260508151546 | 64 | 40 | 2.0 | 5.0 | 0.00 | 0.01 | 0.00 | 37 | 1017.7 |
| 20260508150055 | 63 | 160 | 1.0 | 8.0 | 0.00 | 0.01 | 0.00 | 40 | 1017.5 |
| 20260508144546 | 63 | 36 | 2.0 | 6.0 | 0.00 | 0.01 | 0.00 | 39 | 1017.6 |
| 20260508141539 | 62 | 161 | 3.0 | 8.0 | 0.00 | 0.05 | 0.00 | 43 | 1017.8 |
| 20260508140044 | 61 | 92 | 3.0 | 8.0 | 0.00 | 0.05 | 0.00 | 40 | 1017.9 |
| 20260508134537 | 61 | 135 | 1.0 | 8.0 | 0.00 | 0.05 | 0.00 | 44 | 1017.9 |
| 20260508131534 | 60 | 80 | 4.0 | 8.0 | 0.00 | 0.06 | 0.00 | 47 | 1017.7 |
| 20260508130033 | 59 | 117 | 3.0 | 8.0 | 0.00 | 0.06 | 0.00 | 50 | 1017.6 |
| 20260508124631 | 58 | 82 | 2.0 | 6.0 | 0.00 | 0.06 | 0.00 | 51 | 1017.5 |
| 20260508121531 | 53 | 346 | 0.0 | 0.0 | 0.00 | 0.15 | 0.00 | 55 | 1017.2 |
| 20260508120028 | 52 | 347 | 0.0 | 0.0 | 0.00 | 0.15 | 0.00 | 57 | 1016.9 |
| 20260508114533 | 51 | 347 | 0.0 | 0.0 | 0.00 | 0.15 | 0.00 | 58 | 1016.8 |
| 20260508111525 | 50 | 360 | 0.0 | 0.0 | 0.00 | 0.20 | 0.00 | 57 | 1016.2 |
| 20260508110023 | 49 | 360 | 0.0 | 0.0 | 0.00 | 0.20 | 0.00 | 57 | 1015.9 |
| 20260508104521 | 49 | 360 | 0.0 | 0.0 | 0.00 | 0.20 | 0.00 | 57 | 1015.8 |
| 20260508101523 | 49 | 360 | 0.0 | 0.0 | 0.00 | 0.20 | 0.00 | 58 | 1015.2 |
| 20260508100018 | 50 | 360 | 0.0 | 1.0 | 0.00 | 0.20 | 0.00 | 58 | 1015.1 |
| 20260508094516 | 49 | 360 | 0.0 | 0.0 | 0.00 | 0.20 | 0.00 | 59 | 1015.0 |
| 20260508091515 | 50 | 360 | 0.0 | 0.0 | 0.00 | 0.20 | 0.00 | 59 | 1015.1 |
| 20260508090013 | 50 | 360 | 0.0 | 0.0 | 0.00 | 0.20 | 0.00 | 59 | 1014.9 |
| 20260508084513 | 50 | 360 | 0.0 | 0.0 | 0.00 | 0.20 | 0.00 | 59 | 1014.5 |
| 20260508081515 | 49 | 360 | 0.0 | 0.0 | 0.00 | 0.24 | 0.00 | 59 | 1014.4 |
| 20260508080010 | 50 | 360 | 0.0 | 0.0 | 0.00 | 0.24 | 0.00 | 59 | 1014.2 |
| 20260508074515 | 50 | 360 | 0.0 | 0.0 | 0.00 | 0.24 | 0.00 | 59 | 1014.2 |
| 20260508071507 | 51 | 360 | 0.0 | 0.0 | 0.00 | 0.42 | 0.00 | 59 | 1014.1 |
| 20260508070005 | 51 | 360 | 0.0 | 0.0 | 0.00 | 0.42 | 0.00 | 59 | 1014.0 |
| 20260508064516 | 51 | 360 | 0.0 | 0.0 | 0.00 | 0.42 | 0.00 | 60 | 1014.0 |
| 20260508061502 | 52 | 360 | 0.0 | 0.0 | 0.00 | 0.49 | 0.00 | 62 | 1013.9 |
| 20260508054626 | 53 | 360 | 0.0 | 0.0 | 0.00 | 0.49 | 0.00 | 61 | 1014.0 |
| 20260508051558 | 54 | 360 | 0.0 | 0.0 | 0.00 | 0.64 | 0.00 | 62 | 1013.9 |
| 20260508050054 | 55 | 360 | 0.0 | 1.0 | 0.00 | 0.64 | 0.00 | 59 | 1013.7 |
| 20260508044550 | 55 | 360 | 0.0 | 0.0 | 0.00 | 0.64 | 0.00 | 57 | 1013.5 |
| 20260508041544 | 58 | 360 | 0.0 | 0.0 | 0.00 | 0.64 | 0.00 | 56 | 1013.3 |
| 20260508040049 | 58 | 360 | 0.0 | 0.0 | 0.00 | 0.64 | 0.00 | 56 | 1013.5 |
| 20260508034538 | 60 | 360 | 0.0 | 0.0 | 0.00 | 0.64 | 0.00 | 53 | 1013.3 |
| 20260508031549 | 60 | 346 | 0.0 | 2.0 | 0.00 | 0.82 | 0.00 | 47 | 1013.2 |
| 20260508030034 | 61 | 342 | 1.0 | 3.0 | 0.00 | 0.82 | 0.00 | 46 | 1013.2 |
| 20260508024531 | 61 | 355 | 1.0 | 3.0 | 0.00 | 0.82 | 0.00 | 44 | 1012.9 |
| 20260508021525 | 62 | 334 | 1.0 | 4.0 | 0.00 | 1.17 | 0.00 | 44 | 1012.5 |
| 20260508020023 | 62 | 347 | 2.0 | 4.0 | 0.00 | 1.17 | 0.00 | 44 | 1012.3 |
| 20260508014521 | 63 | 335 | 3.0 | 8.0 | 0.00 | 1.17 | 0.00 | 46 | 1012.0 |
| 20260508011519 | 64 | 312 | 3.0 | 9.0 | 0.00 | 1.42 | 0.00 | 45 | 1011.4 |
| 20260508010024 | 64 | 336 | 3.0 | 10.0 | 0.00 | 1.42 | 0.00 | 49 | 1011.3 |
| 20260508004522 | 64 | 13 | 1.0 | 4.0 | 0.00 | 1.42 | 0.00 | 58 | 1010.8 |
| 20260508001510 | 65 | 82 | 3.0 | 6.0 | 0.00 | 1.65 | 0.00 | 59 | 1010.3 |
| 20260508000007 | 65 | 53 | 3.0 | 8.0 | 0.00 | 1.65 | 0.00 | 61 | 1009.8 |
| 20260507234510 | 65 | 69 | 1.0 | 7.0 | 0.00 | 1.65 | 0.00 | 61 | 1009.4 |
| 20260507231614 | 67 | 348 | 1.0 | 11.0 | 0.00 | 1.66 | 0.00 | 60 | 1008.9 |
| 20260507230056 | 68 | 54 | 6.0 | 12.0 | 0.00 | 1.66 | 0.00 | 59 | 1008.4 |
| 20260507224552 | 71 | 86 | 9.0 | 16.0 | 0.00 | 1.66 | 0.00 | 55 | 1007.7 |
| 20260507223148 | 74 | 342 | 4.0 | 11.0 | 0.00 | 1.66 | 0.00 | 46 | 1007.1 |
| 20260507221549 | 74 | 313 | 3.0 | 6.0 | 0.00 | 1.66 | 0.00 | 52 | 1006.7 |
| 20260507220046 | 74 | 147 | 0.0 | 0.0 | 0.00 | 1.66 | 0.00 | 53 | 1006.6 |
| 20260507214547 | 75 | 342 | 1.0 | 5.0 | 0.00 | 1.66 | 0.00 | 49 | 1006.5 |
| 20260507211554 | 76 | 355 | 0.0 | 5.0 | 0.00 | 1.66 | 0.00 | 47 | 1006.4 |
| 20260507210048 | 77 | 26 | 1.0 | 8.0 | 0.00 | 1.66 | 0.00 | 48 | 1006.4 |
| 20260507204543 | 75 | 309 | 2.0 | 6.0 | 0.00 | 1.66 | 0.00 | 50 | 1006.4 |
| 20260507203143 | 76 | 317 | 2.0 | 5.0 | 0.00 | 1.66 | 0.00 | 48 | 1006.5 |
| 20260507201542 | 75 | 350 | 1.0 | 4.0 | 0.00 | 1.66 | 0.00 | 50 | 1006.5 |
| 20260507200041 | 75 | 291 | 0.0 | 4.0 | 0.00 | 1.66 | 0.00 | 49 | 1006.6 |